📊 Raw Sensor Data

Showing records 50376 to 50400 of 85,133 total

ID Distance (ft) Battery V Battery A Int Temp (°F) Int Humid (%) Ext Temp (°F) Solar V RSSI SNR Time Stamp
34770 -- 4.07 25 56 38 56 4.50 -75 7 03/12/2025 10:16 AM
34769 -- 4.09 36 56 38 56 4.50 -74 8 03/12/2025 10:00 AM
34768 -- 4.10 28 57 38 56 4.50 -75 8 03/12/2025 09:45 AM
34767 15.4 3.99 7 57 37 58 5.10 -75 8 03/12/2025 09:30 AM
34766 -- 3.99 0 56 36 56 5.10 -74 9 03/12/2025 09:15 AM
34765 -- 3.99 0 55 36 56 5.10 -76 8 03/12/2025 09:00 AM
34764 15.4 3.98 7 54 36 55 5.10 -73 8 03/12/2025 08:45 AM
34763 -- 4.10 69 51 38 53 4.50 -74 8 03/12/2025 08:30 AM
34762 -- 4.01 10 50 38 51 4.50 -74 8 03/12/2025 08:16 AM
34761 -- 3.99 0 50 38 50 4.50 -73 9 03/12/2025 08:00 AM
34760 -- 3.92 -5 49 38 50 4.50 -72 7 03/12/2025 07:45 AM
34759 -- 3.91 -10 49 39 50 4.20 -71 8 03/12/2025 07:31 AM
34758 15.4 3.92 -5 49 39 50 0.90 -73 8 03/12/2025 07:15 AM
34757 15.4 3.93 -5 48 39 50 0.00 -73 7 03/12/2025 07:00 AM
34756 15.4 3.98 -5 48 39 50 0.00 -73 8 03/12/2025 06:45 AM
34755 15.7 3.93 -5 48 39 49 0.00 -73 8 03/12/2025 06:30 AM
34754 15.4 3.93 -5 48 39 49 0.00 -72 9 03/12/2025 06:15 AM
34753 -- 3.93 -5 48 39 49 0.00 -74 7 03/12/2025 06:00 AM
34752 -- 3.93 -5 49 39 49 0.10 -74 8 03/12/2025 05:45 AM
34751 15.4 3.93 -5 48 39 50 0.00 -74 8 03/12/2025 05:30 AM
34750 15.4 3.93 -5 48 39 49 0.00 -75 8 03/12/2025 05:15 AM
34749 -- 3.93 -5 48 39 49 0.10 -75 8 03/12/2025 05:00 AM
34748 -- 3.93 -5 48 39 49 0.00 -75 8 03/12/2025 04:45 AM
34747 -- 3.99 -5 48 39 49 0.00 -75 8 03/12/2025 04:30 AM
34746 15.4 3.93 -5 48 39 49 0.00 -74 8 03/12/2025 04:15 AM